GW6614 Weather Reports


time (UTC)temp
C
wind
direction
speed
KPH
gust
KPH
rain 1hr
cm
rain 24hr
cm
rain mn
cm
humidity
%
barometer
mb
20260506224204 10 311 0.0 6.4 0.00 0.23 0.00 87 1010.9
20260506223704 10 312 0.0 6.4 0.00 0.23 0.00 87 1010.8
20260506223204 10 315 0.0 3.2 0.00 0.23 0.00 86 1010.8
20260506221705 10 274 0.0 1.6 0.00 0.23 0.00 86 1010.7
20260506221204 10 274 0.0 6.4 0.00 0.23 0.00 87 1010.6
20260506220705 10 275 0.0 6.4 0.00 0.23 0.00 86 1010.4
20260506220204 10 275 1.6 6.4 0.00 0.23 0.23 86 1010.3
20260506215704 10 226 1.6 6.4 0.00 0.23 0.23 86 1010.3
20260506215204 10 232 0.0 4.8 0.00 0.23 0.23 86 1010.3
20260506214704 10 244 0.0 4.8 0.00 0.23 0.23 86 1010.3
20260506214205 10 244 1.6 4.8 0.00 0.23 0.23 86 1010.3
20260506213705 10 246 1.6 4.8 0.00 0.25 0.23 86 1010.2
20260506213204 10 246 1.6 6.4 0.00 0.25 0.23 86 1010.2
20260506212704 10 246 0.0 6.4 0.00 0.25 0.23 86 1010.2
20260506211704 10 238 1.6 4.8 0.00 0.25 0.23 85 1010.1
20260506211204 10 262 1.6 6.4 0.00 0.25 0.23 85 1010.1
20260506210704 10 260 1.6 6.4 0.00 0.25 0.23 84 1010.1
20260506210204 10 261 1.6 6.4 0.00 0.25 0.23 84 1010.1
20260506204704 10 278 1.6 8.0 0.00 0.25 0.23 84 1009.9
20260506203705 10 234 1.6 4.8 0.00 0.25 0.23 83 1009.9
20260506202706 10 254 1.6 4.8 0.00 0.25 0.23 83 1009.7
20260506202204 10 254 1.6 4.8 0.00 0.25 0.23 83 1009.7
20260506201704 10 266 1.6 4.8 0.00 0.25 0.23 82 1009.8
20260506201205 10 266 0.0 3.2 0.00 0.25 0.23 82 1009.8
20260506200704 11 267 0.0 4.8 0.00 0.25 0.23 82 1009.7
20260506200204 11 267 0.0 4.8 0.00 0.25 0.23 82 1009.6
20260506195704 11 267 0.0 1.6 0.00 0.28 0.23 82 1009.5
20260506195205 11 267 0.0 6.4 0.00 0.30 0.23 82 1009.4
20260506194705 11 267 0.0 6.4 0.00 0.33 0.23 82 1009.4
20260506194205 11 267 0.0 6.4 0.00 0.38 0.23 81 1009.4
20260506193705 11 267 0.0 6.4 0.00 0.41 0.23 81 1009.2
20260506193205 11 250 0.0 8.0 0.00 0.46 0.23 82 1009.2
20260506192205 11 250 1.6 8.0 0.00 0.71 0.23 81 1009.0
20260506191705 11 248 1.6 6.4 0.00 0.76 0.23 80 1009.0
20260506191205 11 246 1.6 6.4 0.00 0.79 0.23 80 1008.9
20260506185704 11 269 1.6 11.3 0.00 0.89 0.23 80 1008.7
20260506185205 11 269 1.6 11.3 0.00 0.94 0.23 80 1008.6
20260506184705 11 268 1.6 9.7 0.00 0.99 0.23 80 1008.6
20260506183704 11 259 1.6 6.4 0.00 1.07 0.23 80 1008.6
20260506183204 11 260 1.6 6.4 0.00 1.09 0.23 80 1008.6
20260506182204 11 286 0.0 4.8 0.00 1.12 0.23 81 1008.5
20260506181204 11 279 0.0 9.7 0.00 1.17 0.23 81 1008.4
20260506180704 11 289 1.6 9.7 0.00 1.17 0.23 81 1008.3
20260506180205 11 276 1.6 9.7 0.00 1.19 0.23 81 1008.3
20260506175704 11 302 1.6 11.3 0.00 1.22 0.23 82 1008.3
20260506175204 11 281 3.2 11.3 0.00 1.24 0.23 82 1008.2
20260506174704 11 234 3.2 11.3 0.00 1.24 0.23 81 1008.1
20260506173704 12 28 1.6 9.7 0.00 1.27 0.23 82 1008.0
20260506173205 12 298 1.6 9.7 0.00 1.27 0.23 82 1007.9
20260506172704 12 290 1.6 9.7 0.00 1.27 0.23 81 1007.7
20260506172204 12 281 1.6 11.3 0.00 1.30 0.23 81 1007.8
20260506171704 12 300 1.6 11.3 0.00 1.30 0.23 81 1007.7
20260506170704 12 349 3.2 9.7 0.00 1.30 0.23 81 1007.8
20260506170204 12 270 3.2 9.7 0.00 1.30 0.23 81 1007.8
20260506165705 12 280 3.2 14.5 0.00 1.30 0.23 80 1007.8
20260506165204 12 24 3.2 14.5 0.00 1.30 0.23 81 1007.8
20260506164704 12 269 3.2 14.5 0.00 1.30 0.23 81 1007.8
20260506164204 12 31 1.6 6.4 0.00 1.30 0.23 81 1007.7
20260506163704 12 322 1.6 9.7 0.00 1.30 0.23 81 1007.7
20260506162704 12 5 1.6 11.3 0.00 1.30 0.23 81 1007.7
20260506162233 12 289 3.2 11.3 0.00 1.30 0.23 80 1007.7
20260506161209 12 295 1.6 9.7 0.00 1.30 0.23 81 1007.7
20260506160228 12 355 3.2 14.5 0.00 1.30 0.23 81 1007.6
20260506155704 12 279 3.2 14.5 0.00 1.30 0.23 82 1007.6
20260506154704 12 271 3.2 12.9 0.00 1.30 0.23 82 1007.6
20260506153704 12 323 3.2 9.7 0.00 1.32 0.23 81 1007.6
20260506153204 12 304 1.6 9.7 0.00 1.32 0.23 80 1007.5
20260506152704 12 241 1.6 9.7 0.00 1.32 0.23 80 1007.4
20260506151704 12 350 1.6 14.5 0.00 1.32 0.23 82 1007.4
20260506151204 12 273 3.2 14.5 0.00 1.35 0.23 83 1007.2
20260506145704 12 316 1.6 11.3 0.00 1.37 0.23 84 1007.0
20260506145205 12 265 1.6 12.9 0.00 1.37 0.23 84 1007.1
20260506144704 12 313 3.2 12.9 0.00 1.37 0.23 84 1007.1
20260506143704 12 286 4.8 12.9 0.00 1.37 0.23 85 1007.1
20260506143204 12 294 3.2 9.7 0.00 1.40 0.23 84 1007.1
20260506142704 12 257 3.2 11.3 0.00 1.40 0.23 84 1007.1
20260506142204 12 244 3.2 11.3 0.00 1.40 0.23 85 1007.1
20260506141704 12 286 1.6 11.3 0.00 1.40 0.23 84 1007.1
20260506141231 12 326 1.6 6.4 0.00 1.42 0.23 85 1007.2
20260506140704 12 325 1.6 8.0 0.00 1.42 0.23 85 1007.2
20260506135204 12 263 1.6 8.0 0.00 1.45 0.23 85 1007.3
20260506134705 12 314 1.6 8.0 0.00 1.45 0.23 86 1007.3
20260506134205 11 325 1.6 6.4 0.00 1.45 0.23 86 1007.3
20260506133704 11 303 1.6 8.0 0.00 1.45 0.23 86 1007.3
20260506132704 11 277 3.2 11.3 0.00 1.45 0.23 86 1007.4
20260506132204 12 277 3.2 11.3 0.00 1.45 0.23 86 1007.3
20260506130719 12 338 3.2 11.3 0.00 1.47 0.23 86 1007.2
20260506130226 12 284 4.8 11.3 0.00 1.50 0.23 85 1007.1
20260506125704 12 273 3.2 11.3 0.00 1.50 0.23 86 1007.0
20260506124704 12 22 1.6 11.3 0.00 1.52 0.23 87 1006.9
20260506124204 12 271 1.6 9.7 0.00 1.55 0.23 86 1006.8
20260506123704 12 288 1.6 9.7 0.00 1.55 0.23 86 1006.8
20260506123204 12 312 1.6 8.0 0.00 1.55 0.23 86 1006.8
20260506122704 12 342 1.6 8.0 0.00 1.57 0.23 85 1006.8
20260506122204 12 296 1.6 6.4 0.00 1.60 0.23 86 1006.7
20260506121704 12 277 1.6 9.7 0.00 1.63 0.23 86 1006.7
20260506121204 12 315 1.6 9.7 0.00 1.65 0.23 86 1006.7
20260506120704 12 271 3.2 9.7 0.00 1.65 0.23 86 1006.6
20260506120206 12 317 3.2 9.7 0.00 1.68 0.23 86 1006.6
20260506115704 12 304 3.2 8.0 0.00 1.70 0.23 86 1006.6
20260506115204 12 319 3.2 11.3 0.00 1.70 0.23 86 1006.6
20260506114704 12 301 3.2 11.3 0.00 1.70 0.23 86 1006.6
20260506114204 12 311 3.2 8.0 0.00 1.70 0.23 86 1006.6
20260506113704 12 259 1.6 6.4 0.00 1.70 0.23 87 1006.5
20260506113224 12 275 1.6 8.0 0.00 1.70 0.23 87 1006.5
20260506112704 12 274 3.2 11.3 0.00 1.70 0.23 86 1006.4
20260506112205 12 32 3.2 11.3 0.00 1.70 0.23 86 1006.3
20260506111728 12 294 3.2 11.3 0.00 1.70 0.23 87 1006.3
20260506111204 12 261 3.2 11.3 0.00 1.70 0.23 87 1006.3
20260506110705 12 294 1.6 9.7 0.00 1.70 0.23 88 1006.3
20260506110204 12 273 1.6 9.7 0.00 1.70 0.23 88 1006.3
20260506105704 12 288 1.6 6.4 0.00 1.70 0.23 89 1006.2
20260506105204 12 290 1.6 4.8 0.00 1.70 0.23 89 1006.2
20260506104704 12 325 0.0 6.4 0.00 1.70 0.23 89 1006.2
20260506103704 12 306 1.6 6.4 0.00 1.70 0.23 89 1006.0
20260506103204 12 275 1.6 6.4 0.00 1.70 0.23 89 1006.0
20260506102704 12 293 1.6 8.0 0.00 1.70 0.23 90 1006.0
20260506102204 11 312 1.6 8.0 0.00 1.70 0.23 90 1006.0
20260506101704 11 271 1.6 8.0 0.00 1.70 0.23 90 1005.9
20260506101204 11 236 1.6 8.0 0.00 1.70 0.23 91 1005.9
20260506100704 11 281 3.2 11.3 0.00 1.70 0.23 91 1005.9
20260506100223 11 225 3.2 11.3 0.00 1.70 0.23 91 1005.8
20260506095704 11 217 1.6 11.3 0.00 1.70 0.23 91 1005.8
20260506095204 11 249 1.6 9.7 0.00 1.70 0.23 92 1005.8
20260506094704 11 340 1.6 9.7 0.00 1.70 0.23 91 1005.7
20260506093704 11 311 3.2 9.7 0.00 1.70 0.23 92 1005.7
20260506093205 11 300 3.2 9.7 0.00 1.70 0.23 92 1005.5
20260506092704 11 274 3.2 8.0 0.00 1.70 0.23 92 1005.5
20260506092204 11 225 1.6 8.0 0.00 1.70 0.23 93 1005.5
20260506091704 11 304 1.6 6.4 0.00 1.70 0.23 93 1005.4
20260506090704 11 339 1.6 4.8 0.00 1.70 0.23 94 1005.4
20260506085704 11 303 1.6 11.3 0.00 1.70 0.23 95 1005.3
20260506085204 11 290 3.2 11.3 0.00 1.70 0.23 95 1005.3
20260506084704 11 289 4.8 11.3 0.00 1.70 0.23 95 1005.3
20260506084204 11 296 3.2 8.0 0.00 1.70 0.23 96 1005.2
20260506083704 11 234 3.2 8.0 0.00 1.70 0.23 96 1005.1
20260506083204 11 253 3.2 11.3 0.00 1.70 0.23 95 1005.2
20260506082204 11 340 3.2 11.3 0.03 1.70 0.23 96 1005.0
20260506081704 11 270 1.6 8.0 0.03 1.70 0.23 96 1005.0
20260506081204 11 256 1.6 8.0 0.03 1.70 0.23 96 1005.0
20260506080204 11 310 1.6 6.4 0.03 1.70 0.23 96 1004.9
20260506073204 11 264 1.6 8.0 0.03 1.68 0.23 96 1005.0
20260506072704 11 264 1.6 6.4 0.03 1.68 0.23 96 1005.0
20260506072204 11 268 0.0 6.4 0.03 1.68 0.23 96 1005.0
20260506071704 11 252 0.0 3.2 0.05 1.68 0.23 96 1004.9
20260506071204 11 252 0.0 3.2 0.05 1.68 0.23 96 1004.8
20260506070704 11 250 0.0 3.2 0.05 1.68 0.23 96 1004.8
20260506070205 11 250 0.0 4.8 0.08 1.68 0.23 96 1004.8
20260506062204 11 248 1.6 6.4 0.13 1.65 0.20 96 1004.4
20260506061704 11 248 1.6 6.4 0.10 1.65 0.18 96 1004.5
20260506061204 11 248 1.6 8.0 0.08 1.63 0.15 96 1004.5
20260506060704 11 248 3.2 8.0 0.08 1.63 0.15 95 1004.3
20260506051204 11 177 0.0 4.8 0.03 1.55 0.08 96 1004.2
20260506050204 11 232 0.0 4.8 0.05 1.55 0.08 96 1004.1
20260506044704 11 244 0.0 3.2 0.08 1.55 0.08 95 1004.0
20260506044204 11 243 0.0 3.2 0.08 1.55 0.08 95 1003.9
20260506043704 11 243 0.0 4.8 0.08 1.55 0.08 95 1004.1
20260506043204 11 243 0.0 4.8 0.08 1.55 0.08 95 1004.1
20260506042704 11 243 0.0 4.8 0.08 1.55 0.08 95 1004.2
20260506042204 11 231 0.0 1.6 0.05 1.52 0.05 95 1004.2
20260506041704 11 231 0.0 0.0 0.05 1.52 0.05 95 1004.2
20260506041204 11 231 0.0 0.0 0.05 1.52 0.05 95 1004.2
20260506040704 11 231 0.0 0.0 0.03 1.47 0.03 95 1004.3
20260506040205 11 231 0.0 3.2 0.00 1.45 0.00 95 1004.2
20260506035704 11 231 0.0 3.2 0.00 1.45 0.00 94 1004.3
20260506034704 11 229 0.0 4.8 0.00 1.45 0.00 94 1004.4
20260506034205 11 229 0.0 3.2 0.00 1.45 0.00 94 1004.4
20260506033704 11 227 0.0 4.8 0.00 1.45 0.00 94 1004.5
20260506033204 11 225 0.0 4.8 0.00 1.45 0.00 94 1004.4
20260506032704 11 225 0.0 4.8 0.00 1.45 0.00 94 1004.5
20260506032205 11 224 0.0 4.8 0.00 1.45 0.00 94 1004.5
20260506031704 11 240 0.0 4.8 0.00 1.45 0.00 95 1004.5
20260506030704 11 252 0.0 3.2 0.00 1.45 0.00 95 1004.6
20260506030205 11 252 0.0 3.2 0.00 1.45 0.00 95 1004.5
20260506025704 11 236 0.0 6.4 0.00 1.45 0.00 95 1004.6
20260506025204 11 236 0.0 6.4 0.00 1.45 0.00 95 1004.6
20260506024704 11 236 0.0 6.4 0.00 1.45 0.00 95 1004.6
20260506024204 11 231 0.0 4.8 0.00 1.45 0.00 95 1004.7
20260506023704 11 235 0.0 6.4 0.00 1.45 0.00 95 1004.6
20260506023204 11 217 0.0 6.4 0.00 1.45 0.00 95 1004.6
20260506022704 11 217 1.6 8.0 0.00 1.45 0.00 95 1004.6
20260506022204 11 214 3.2 9.7 0.00 1.45 0.00 95 1004.6
20260506021705 12 247 3.2 9.7 0.00 1.45 0.00 95 1004.6
20260506021205 12 252 1.6 9.7 0.00 1.45 0.00 95 1004.6
20260506020704 12 244 1.6 8.0 0.00 1.45 0.00 95 1004.7
20260506020204 12 233 1.6 6.4 0.00 1.45 0.00 95 1004.5
20260506015704 12 235 0.0 4.8 0.00 1.45 0.00 95 1004.6
20260506015204 12 222 0.0 4.8 0.00 1.45 0.00 95 1004.7
20260506014704 12 223 1.6 4.8 0.00 1.45 0.00 95 1004.6
20260506014205 12 294 1.6 6.4 0.00 1.45 0.00 95 1004.7
20260506013705 12 11 1.6 8.0 0.00 1.45 0.00 95 1004.8
20260506012704 12 236 1.6 8.0 0.00 1.45 0.00 95 1004.9
20260506012204 12 242 1.6 8.0 0.00 1.45 0.00 95 1004.8
20260506011704 12 232 1.6 6.4 0.00 1.45 0.00 95 1004.9
20260506011204 12 238 0.0 6.4 0.00 1.45 0.00 95 1004.9
20260506010704 12 242 0.0 6.4 0.00 1.45 0.00 95 1004.9
20260506010204 12 242 0.0 8.0 0.00 1.45 0.00 95 1004.9
20260506005705 12 255 1.6 8.0 0.00 1.45 0.00 95 1005.0
20260506005206 12 255 1.6 8.0 0.00 1.45 0.00 95 1004.9
20260506004704 12 213 1.6 9.7 0.00 1.45 0.00 95 1005.0
20260506004204 12 130 3.2 9.7 0.00 1.45 0.00 95 1005.1
20260506003204 12 228 1.6 12.9 0.00 1.45 0.00 95 1005.1
20260506002704 12 146 1.6 12.9 0.00 1.45 0.00 95 1005.1
20260506002204 12 156 1.6 9.7 0.00 1.45 0.00 95 1005.1
20260506001204 12 38 1.6 9.7 0.00 1.45 0.00 95 1005.2
20260505235704 12 227 1.6 8.0 0.00 1.45 0.00 95 1005.4
20260505235205 12 216 0.0 8.0 0.00 1.45 0.00 95 1005.4
20260505234704 12 201 1.6 8.0 0.00 1.45 0.00 95 1005.5
20260505234204 12 210 1.6 8.0 0.00 1.45 0.00 96 1005.5
20260505233704 12 221 0.0 8.0 0.00 1.45 0.00 96 1005.6
20260505233204 12 212 1.6 8.0 0.00 1.45 0.00 96 1005.5
20260505232705 12 237 1.6 8.0 0.00 1.45 0.00 96 1005.5
20260505232204 12 294 1.6 8.0 0.00 1.45 0.00 96 1005.5
20260505231705 12 152 1.6 8.0 0.00 1.45 0.00 96 1005.6
20260505231204 12 247 0.0 4.8 0.00 1.45 0.00 96 1005.5
20260505230704 12 185 0.0 6.4 0.00 1.45 0.00 96 1005.5
20260505225705 12 297 0.0 12.9 0.00 1.45 0.00 96 1005.5
20260505225205 12 241 0.0 12.9 0.00 1.45 0.00 96 1005.6
20260505224704 12 303 0.0 3.2 0.00 1.45 0.00 96 1005.6